Location: Newark
(34.6283°N, 36.0776°E)
Time: 19:47:55
(UTC+00:00)

A-11 Canister half - Pass Details

Date: 18 September 2019
Orbit: 1527 x 1682 km, 47.3° (Epoch: 20 October)

Event Time Altitude Azimuth Distance (km) Brightness Sun altitude
Rises 00:57:08 0° 218° (SW) 4,667 - -29.3°
Reaches altitude 10° 01:00:11 10° 214° (SW) 3,693 - -28.7°
Exits shadow 01:05:22 37° 200° (SSW) 2,223 9.4 -27.7°
Maximum altitude 01:09:19 62° 136° (SE) 1,713 9.2 -27.0°
Drops below altitude 10° 01:18:43 10° 59° (ENE) 3,797 12.1 -25.2°
Sets 01:21:53 0° 56° (ENE) 4,806 12.9 -24.6°
